TimeAKST,TemperatureF,Dew PointF,Humidity,Sea Level PressureIn,VisibilityMPH,Wind Direction,Wind SpeedMPH,Gust SpeedMPH,PrecipitationIn,Events,Conditions,WindDirDegrees,DateUTC
12:05 AM,28.4,26.6,93,28.92,2.5,ESE,16.1,25.3,0.00,Snow,Light Snow,110,2011-11-24 09:05:00
12:09 AM,28.4,26.6,93,28.92,6.0,ESE,17.3,25.3,0.00,Snow,Light Snow,110,2011-11-24 09:09:00
12:53 AM,33.1,25.0,72,28.91,10.0,SSE,12.7,27.6,0.01,,Overcast,160,2011-11-24 09:53:00
1:36 AM,32.0,24.8,75,28.92,2.5,South,26.5,35.7,0.00,Snow,Blowing Snow,170,2011-11-24 10:36:00
1:44 AM,30.2,26.6,86,28.92,1.0,SSE,27.6,40.3,0.00,Snow,Blowing Snow,160,2011-11-24 10:44:00
1:53 AM,30.9,27.0,85,28.92,1.5,SE,24.2,42.6,0.01,Snow,Blowing Snow,140,2011-11-24 10:53:00
1:59 AM,32.0,28.4,87,28.91,3.0,SSE,23.0,42.6,0.00,Snow,Light Snow,150,2011-11-24 10:59:00
2:13 AM,30.2,26.6,86,28.92,2.0,SSE,23.0,33.4,0.01,Snow,Light Snow,150,2011-11-24 11:13:00
2:27 AM,33.8,28.4,81,28.93,5.0,SSE,25.3,33.4,0.02,Snow,Light Snow,160,2011-11-24 11:27:00
2:53 AM,33.8,30.2,87,28.94,3.0,SSE,23.0,38.0,N/A,Snow,Light Snow,160,2011-11-24 11:53:00
3:43 AM,33.8,26.6,75,28.95,9.0,SSE,21.9,32.2,0.01,,Mostly Cloudy,160,2011-11-24 12:43:00
3:53 AM,33.8,26.6,75,28.96,10.0,South,21.9,33.4,N/A,,Mostly Cloudy,170,2011-11-24 12:53:00
4:28 AM,33.8,24.8,70,28.97,10.0,SSE,21.9,32.2,0.00,Thunderstorm,Thunderstorm,160,2011-11-24 13:28:00
4:44 AM,33.8,24.8,70,28.98,10.0,SSE,17.3,25.3,0.00,,Overcast,160,2011-11-24 13:44:00
4:53 AM,34.0,26.1,73,28.98,10.0,SSE,17.3,24.2,0.00,,Overcast,160,2011-11-24 13:53:00
5:53 AM,36.0,25.0,64,29.00,10.0,South,12.7,25.3,N/A,,Mostly Cloudy,180,2011-11-24 14:53:00
6:53 AM,35.1,27.0,72,28.99,10.0,East,8.1,-,N/A,,Overcast,100,2011-11-24 15:53:00
7:07 AM,33.8,26.6,75,29.00,3.0,ESE,11.5,-,0.00,Snow,Light Snow,120,2011-11-24 16:07:00
7:26 AM,32.0,26.6,80,29.00,7.0,East,12.7,-,0.01,Snow,Light Snow,100,2011-11-24 16:26:00
7:53 AM,32.0,27.0,82,29.00,7.0,East,8.1,-,0.01,,Overcast,80,2011-11-24 16:53:00
8:02 AM,32.0,26.6,80,29.00,1.5,ESE,11.5,-,0.00,Snow,Light Snow,110,2011-11-24 17:02:00
8:10 AM,32.0,28.4,87,29.01,1.0,East,11.5,-,0.01,Snow,Light Snow,100,2011-11-24 17:10:00
8:15 AM,32.0,28.4,87,29.01,2.0,East,6.9,-,0.02,Snow,Light Snow,90,2011-11-24 17:15:00
8:27 AM,30.2,28.4,93,29.01,2.0,NE,5.8,-,0.02,Snow,Light Snow,40,2011-11-24 17:27:00
8:30 AM,30.2,28.4,93,29.01,2.0,East,3.5,-,0.03,Snow,Light Snow,80,2011-11-24 17:30:00
8:34 AM,30.2,28.4,93,29.02,0.8,SSE,6.9,-,0.03,Snow,Light Snow,150,2011-11-24 17:34:00
8:48 AM,33.8,30.2,87,29.02,1.5,SE,4.6,-,0.04,Snow,Light Snow,130,2011-11-24 17:48:00
8:53 AM,33.1,30.0,89,29.01,1.5,East,3.5,-,0.04,Snow,Light Snow,100,2011-11-24 17:53:00
8:59 AM,32.0,28.4,87,29.02,2.0,SE,8.1,-,0.00,Snow,Light Snow,140,2011-11-24 17:59:00
9:02 AM,33.8,30.2,87,29.02,1.0,WSW,9.2,-,0.01,Snow,Light Snow,240,2011-11-24 18:02:00
9:07 AM,33.8,30.2,87,29.03,0.5,WSW,17.3,27.6,0.02,Fog-Snow,Light Snow,250,2011-11-24 18:07:00
9:11 AM,32.0,30.2,93,29.03,2.0,West,11.5,27.6,0.03,Snow,Light Snow,260,2011-11-24 18:11:00
9:18 AM,32.0,30.2,93,29.03,2.0,WNW,6.9,-,0.03,Snow,Light Snow,300,2011-11-24 18:18:00
9:25 AM,32.0,30.2,93,29.04,5.0,WSW,4.6,-,0.03,,Mostly Cloudy,240,2011-11-24 18:25:00
9:53 AM,32.0,30.9,96,29.05,3.0,Calm,Calm,-,0.03,Snow,Light Snow,0,2011-11-24 18:53:00
9:56 AM,32.0,30.2,93,29.05,1.2,SW,17.3,23.0,0.00,Snow,Light Snow,230,2011-11-24 18:56:00
10:01 AM,30.2,26.6,86,29.05,0.2,NW,4.6,23.0,0.01,Fog-Snow,Heavy Snow,310,2011-11-24 19:01:00
10:04 AM,30.2,28.4,93,29.06,2.5,WNW,8.1,23.0,0.01,Snow,Light Snow,300,2011-11-24 19:04:00
10:08 AM,30.2,26.6,86,29.06,2.0,West,6.9,-,0.01,Snow,Light Snow,280,2011-11-24 19:08:00
10:14 AM,30.2,28.4,93,29.06,0.8,WNW,5.8,-,0.01,Snow,Light Snow,290,2011-11-24 19:14:00
10:17 AM,30.2,28.4,93,29.07,0.2,West,10.4,-,0.01,Fog-Snow,Heavy Snow,280,2011-11-24 19:17:00
10:20 AM,32.0,28.4,87,29.07,0.1,NW,18.4,-,0.02,Fog-Snow,Heavy Snow,310,2011-11-24 19:20:00
10:39 AM,30.2,30.2,100,29.07,1.0,NNW,8.1,-,0.04,Snow,Light Snow,340,2011-11-24 19:39:00
10:48 AM,30.2,30.2,100,29.08,6.0,NNW,15.0,-,0.05,Snow,Light Snow,330,2011-11-24 19:48:00
10:53 AM,32.0,30.9,96,29.08,7.0,NW,10.4,-,0.06,Snow,Light Snow,320,2011-11-24 19:53:00
11:04 AM,30.2,28.4,93,29.08,10.0,North,8.1,-,0.00,,Mostly Cloudy,360,2011-11-24 20:04:00
11:53 AM,32.0,26.1,79,29.11,10.0,NNW,8.1,-,0.00,,Scattered Clouds,340,2011-11-24 20:53:00
12:53 PM,32.0,27.0,82,29.13,4.0,WNW,10.4,-,0.00,Snow,Light Snow,290,2011-11-24 21:53:00
1:06 PM,32.0,28.4,87,29.14,7.0,WNW,6.9,-,0.00,Snow,Light Snow,290,2011-11-24 22:06:00
1:47 PM,32.0,26.6,80,29.15,0.8,NW,12.7,17.3,0.00,Snow,Light Snow,320,2011-11-24 22:47:00
1:48 PM,32.0,27.0,82,29.15,0.8,NW,12.7,17.3,0.00,Snow,Light Snow,320,2011-11-24 22:48:00
1:53 PM,30.2,28.4,93,29.15,2.0,North,9.2,-,0.00,Snow,Light Snow,350,2011-11-24 22:53:00
1:56 PM,30.2,28.4,93,29.15,3.0,North,6.9,-,0.00,Snow,Light Snow,350,2011-11-24 22:56:00
2:02 PM,30.2,28.4,93,29.15,7.0,NNW,5.8,-,0.00,Snow,Light Snow,340,2011-11-24 23:02:00
2:53 PM,30.0,26.1,85,29.16,10.0,Calm,Calm,-,0.00,,Scattered Clouds,0,2011-11-24 23:53:00
3:24 PM,30.2,28.4,93,29.18,2.5,NW,11.5,-,0.00,Snow,Light Snow,320,2011-11-25 00:24:00
3:34 PM,30.2,28.4,93,29.19,4.0,NNW,9.2,-,0.00,Snow,Light Snow,330,2011-11-25 00:34:00
3:53 PM,30.9,28.0,89,29.19,10.0,NNW,8.1,-,0.00,,Overcast,340,2011-11-25 00:53:00
4:14 PM,30.2,28.4,93,29.20,2.5,NNW,11.5,-,0.00,Snow,Light Snow,330,2011-11-25 01:14:00
4:23 PM,30.2,28.4,93,29.21,1.0,NNW,9.2,-,0.00,Snow,Light Snow,330,2011-11-25 01:23:00
4:30 PM,30.2,28.4,93,29.21,0.8,WNW,12.7,-,0.01,Snow,Light Snow,300,2011-11-25 01:30:00
4:37 PM,30.2,28.4,93,29.21,1.0,WNW,10.4,-,0.01,Snow,Light Snow,300,2011-11-25 01:37:00
4:44 PM,30.2,30.2,100,29.21,1.2,WNW,10.4,-,0.02,Snow,Light Snow,300,2011-11-25 01:44:00
4:53 PM,30.0,28.9,96,29.22,1.2,NNW,9.2,-,0.02,Snow,Light Snow,330,2011-11-25 01:53:00
5:02 PM,30.2,28.4,93,29.22,3.0,NNW,5.8,-,0.00,Snow,Light Snow,340,2011-11-25 02:02:00
5:23 PM,28.4,28.4,100,29.23,5.0,East,4.6,-,0.00,Snow,Light Snow,90,2011-11-25 02:23:00
5:41 PM,28.4,26.6,93,29.23,10.0,East,3.5,-,0.00,,Scattered Clouds,100,2011-11-25 02:41:00
5:53 PM,27.0,26.1,96,29.24,10.0,East,5.8,-,0.00,,Partly Cloudy,90,2011-11-25 02:53:00
6:53 PM,26.1,26.1,100,29.27,10.0,East,4.6,-,N/A,,Partly Cloudy,80,2011-11-25 03:53:00
7:53 PM,25.0,24.1,96,29.30,10.0,East,6.9,-,N/A,,Mostly Cloudy,90,2011-11-25 04:53:00
8:53 PM,26.1,23.0,88,29.34,10.0,East,6.9,-,N/A,,Clear,100,2011-11-25 05:53:00
9:53 PM,25.0,21.9,88,29.38,10.0,East,8.1,-,N/A,,Clear,80,2011-11-25 06:53:00
10:53 PM,26.1,23.0,88,29.41,10.0,ESE,10.4,-,N/A,,Clear,110,2011-11-25 07:53:00
11:53 PM,28.0,24.1,85,29.44,10.0,ESE,11.5,-,N/A,,Clear,110,2011-11-25 08:53:00